Weather History for Gallup, NM

Change the Weather History Date:

Friday, September 27, 2013

  Actual Average Record
Temperature  
Mean Temperature 48 °F -  
Max Temperature 60 °F 74 °F 87 °F (2003)
Min Temperature 33 °F 37 °F 23 °F (1993)
Degree Days  
Heating Degree Days 17    
Moisture  
Dew Point 34 °F    
Average Humidity 62    
Maximum Humidity 93    
Minimum Humidity 20    
Precipitation  
Precipitation 0.10 in - - ()
Sea Level Pressure  
Sea Level Pressure 29.80 in    
Wind  
Wind Speed 9 mph (West)    
Max Wind Speed 23 mph    
Max Gust Speed 33 mph    
Visibility 10 miles    
Events Rain    
Averages and records for this station are not official NWS values.
T = Trace of Precipitation, MM = Missing Value Source: NWS Daily Summary

Daily Weather History Graph

Daily Weather History Graph

Search for Another Location

Airport:

Trip Planner

Search our weather history database for the weather conditions in past years. The results will help you decide how hot, cold, wet, or windy it might be!

Date:

Astronomy

Sep. 27, 2013 Rise Set
Actual Time 7:07 AM MDT 7:04 PM MDT
Civil Twilight 6:41 AM MDT 7:29 PM MDT
Nautical Twilight 6:12 AM MDT 7:59 PM MDT
Astronomical Twilight 5:42 AM MDT 8:28 PM MDT
Moon 12:16 AM MDT (9/27) 2:34 PM MDT (9/27)
Length of Visible Light 12h 47m
Length of Day
11h 57m
Last Quarter, 44% of the Moon is Illuminated
Sep 27
Last Quarter
Oct 4
New
Oct 11
First Quarter
Oct 18
Full
Oct 26
Last Quarter

Hourly Weather History & Observations

Time (MDT) Temp. Windchill Dew Point Humidity Pressure Visibility Wind Dir Wind Speed Gust Speed Precip Events Conditions
12:53 AM 57.9 °F - 34.0 °F 41% 29.49 in 10.0 mi South 6.9 mph - N/A   Overcast
1:53 AM 55.9 °F - 34.0 °F 44% 29.48 in 10.0 mi South 8.1 mph - N/A   Overcast
2:53 AM 60.1 °F - 41.0 °F 49% 29.44 in 10.0 mi SW 23.0 mph 33.4 mph 0.00 in Rain Light Rain
3:53 AM 52.0 °F - 46.9 °F 83% 29.53 in 9.0 mi WSW 19.6 mph 27.6 mph 0.00 in Rain Light Rain
4:53 AM 50.0 °F - 46.0 °F 86% 29.54 in 10.0 mi West 5.8 mph - 0.01 in   Mostly Cloudy
5:53 AM 48.9 °F - 42.1 °F 77% 29.58 in 10.0 mi West 9.2 mph - 0.00 in Rain Light Rain
6:39 AM 46.4 °F 44.3 °F 42.8 °F 87% 29.97 in 5.0 mi West 4.6 mph - 0.04 in Rain Rain
6:48 AM 46.4 °F 41.5 °F 42.8 °F 87% 29.97 in 8.0 mi WNW 10.4 mph - 0.05 in Rain Light Rain
6:53 AM 45.0 °F 40.1 °F 39.9 °F 82% 29.66 in 9.0 mi WNW 9.2 mph - 0.05 in Rain Light Rain
7:37 AM 44.6 °F 42.2 °F 42.8 °F 93% 29.98 in 10.0 mi NW 4.6 mph - 0.03 in   Overcast
7:53 AM 45.0 °F 42.6 °F 41.0 °F 86% 29.69 in 10.0 mi NNW 4.6 mph - 0.03 in   Overcast
8:53 AM 45.0 °F 42.6 °F 37.0 °F 74% 29.73 in 10.0 mi WNW 4.6 mph - N/A Rain Light Rain
9:53 AM 46.0 °F 44.8 °F 37.9 °F 73% 29.75 in 10.0 mi NW 3.5 mph - 0.00 in Rain Light Rain
10:12 AM 46.4 °F 43.5 °F 39.2 °F 76% 30.04 in 10.0 mi NW 5.8 mph - 0.01 in Rain Light Rain
10:53 AM 46.0 °F 41.9 °F 36.0 °F 68% 29.80 in 10.0 mi West 8.1 mph - 0.01 in   Overcast
11:53 AM 46.0 °F 41.0 °F 37.9 °F 73% 29.82 in 10.0 mi West 10.4 mph - 0.00 in   Overcast
12:53 PM 48.0 °F - 36.0 °F 63% 29.82 in 10.0 mi SW 13.8 mph 18.4 mph N/A   Overcast
1:53 PM 48.9 °F - 37.0 °F 64% 29.81 in 10.0 mi SW 11.5 mph - N/A   Overcast
2:53 PM 53.1 °F - 37.9 °F 57% 29.74 in 10.0 mi SW 10.4 mph - N/A   Mostly Cloudy
3:53 PM 57.0 °F - 28.9 °F 34% 29.78 in 10.0 mi West 16.1 mph 20.7 mph N/A   Clear
4:53 PM 57.9 °F - 21.0 °F 24% 29.79 in 10.0 mi West 13.8 mph 18.4 mph N/A   Clear
5:53 PM 57.0 °F - 16.0 °F 20% 29.83 in 10.0 mi WNW 13.8 mph - N/A   Clear
6:53 PM 54.0 °F - 15.1 °F 22% 29.88 in 10.0 mi NW 8.1 mph - N/A   Clear
7:53 PM 50.0 °F - 17.1 °F 27% 29.94 in 10.0 mi NW 6.9 mph - N/A   Clear
8:53 PM 44.1 °F - 21.0 °F 40% 30.02 in 10.0 mi Calm Calm - N/A   Clear
9:53 PM 37.9 °F - 25.0 °F 60% 30.08 in 10.0 mi Calm Calm - N/A   Clear
10:53 PM 36.0 °F - 25.0 °F 64% 30.11 in 10.0 mi Calm Calm - N/A   Clear
11:53 PM 33.1 °F - 25.0 °F 72% 30.14 in 10.0 mi Calm Calm - N/A   Clear